Regional Weather Roundup
Issued by NWS Little Rock, AR

Home | Current Version | Previous Version | Graphics & Text | Print | Product List | Glossary On
Versions: 1 2 3 4 5 6 7 8 9 10 11 12 13 14 15 16 17 18 19 20 21 22 23 24 25 26 27 28 29 30 31
000
ASUS44 KLZK 200705
RWRLZK

WEATHER ROUNDUP FOR ARKANSAS
NATIONAL WEATHER SERVICE LITTLE ROCK AR
200 AM CDT SUN AUG 20 2017

NOTE: "FAIR" INDICATES FEW OR NO CLOUDS BELOW 12,000 FEET WITH NO
SIGNIFICANT WEATHER AND/OR OBSTRUCTIONS TO VISIBILITY.

ARZ001-003-010-029-200800-
NORTHWEST ARKANSAS

CITY           SKY/WX    TMP DP  RH WIND       PRES   REMARKS
FAYETTEVILLE   PTCLDY    72  72 100 CALM      30.01F
FORT SMITH     PTCLDY    81  77  88 NE5       29.96F HX  88
HARRISON       PTCLDY    76  73  91 S3        30.02F
BENTONVILLE    PTCLDY    77  70  78 S3        30.02S
ROGERS         PTCLDY    76  72  87 S5        30.02F
SILOAM SPGS    CLOUDY    75  70  83 S3        30.00F
HIGHFILL       MOCLDY    75  72  90 SW3       30.01F
$$

ARZ004-005-016-200800-
NORTH CENTRAL ARKANSAS

CITY           SKY/WX    TMP DP  RH WIND       PRES   REMARKS
BATESVILLE     MOCLDY    73  72  94 CALM      30.00S
FLIPPIN        PTCLDY    79  70  73 CALM      29.98S
MTN HOME       PTCLDY    76  74  93 S5        30.00F
$$

ARZ040-041-200800-
WEST CENTRAL ARKANSAS

CITY           SKY/WX    TMP DP  RH WIND       PRES   REMARKS
MENA           CLEAR     79  79 100 CALM      30.01S
MOUNT IDA      CLEAR     77  74  90 CALM      29.98S
$$

ARZ009-017-025-026-028-200800-
NORTHEAST ARKANSAS

CITY           SKY/WX    TMP DP  RH WIND       PRES   REMARKS
JONESBORO      CLOUDY    75  75 100 CALM      29.97F
NEWPORT        CLEAR     76  73  91 SW3       29.98F
WALNUT RIDGE   CLEAR     73  70  88 CALM      29.98F
BLYTHEVILLE    PTCLDY    73  73 100 CALM      29.98S
$$

ARZ022-023-033-042-044-200800-
CENTRAL ARKANSAS

CITY           SKY/WX    TMP DP  RH WIND       PRES   REMARKS
LITTLE ROCK    PTCLDY    79  78  97 CALM      29.98S
N LITTLE ROCK    N/A     81  76  85 CALM      29.98F HX  87
JACKSONVILLE   CLEAR     77  77 100 CALM      29.98S
CONWAY           N/A     77  77 100 N3        29.96F
SEARCY         CLEAR     74  74 100 CALM      30.00S
HOT SPRINGS    CLEAR     80  78  94 CALM      29.99S HX  88
RUSSELLVILLE   CLEAR     77  76  96 CALM      29.97S
CLINTON        CLOUDY    75  73  94 CALM      30.00F
$$

ARZ036-200800-
EAST ARKANSAS

CITY           SKY/WX    TMP DP  RH WIND       PRES   REMARKS
WEST MEMPHIS   CLOUDY    78  78 100 CALM      29.97S
$$

ARZ050-053-066-070-073-200800-
SOUTHWEST ARKANSAS

CITY           SKY/WX    TMP DP  RH WIND       PRES   REMARKS
ARKADELPHIA    FAIR      78  77  96 CALM      29.98S FOG
CAMDEN         CLEAR     77  73  88 CALM      29.97S
TEXARKANA      PTCLDY    80  76  87 S5        29.98S HX  86
EL DORADO      CLEAR     78  76  93 S5        29.99S
DE QUEEN       FOG       77  77 100 CALM      29.96S VSB 1/2
$$

ARZ056-057-069-200800-
SOUTHEAST ARKANSAS

CITY           SKY/WX    TMP DP  RH WIND       PRES   REMARKS
PINE BLUFF     CLEAR     79  76  90 SW5       29.98F
MONTICELLO     MOCLDY    79  74  84 CALM      30.00R

$$






USA.gov is the U.S. government's official web portal to all federal, state and local government web resources and services.